TimeCDT,TemperatureF,Dew PointF,Humidity,Sea Level PressureIn,VisibilityMPH,Wind Direction,Wind SpeedMPH,Gust SpeedMPH,PrecipitationIn,Events,Conditions,WindDirDegrees,DateUTC
12:20 AM,60.8,55.4,82,30.09,10.0,NNE,10.4,-,N/A,,Overcast,30,2012-10-06 05:20:00
12:53 AM,59.0,55.9,90,30.09,10.0,NNE,12.7,20.7,N/A,,Overcast,30,2012-10-06 05:53:00
1:20 AM,59.0,55.4,88,30.10,10.0,NE,9.2,-,N/A,,Overcast,40,2012-10-06 06:20:00
1:53 AM,55.9,53.1,90,30.10,10.0,ENE,12.7,25.3,0.00,,Overcast,60,2012-10-06 06:53:00
2:44 AM,55.4,51.8,88,30.12,10.0,ENE,12.7,18.4,0.00,Rain,Light Rain,60,2012-10-06 07:44:00
2:53 AM,54.0,51.1,90,30.11,10.0,ENE,12.7,19.6,0.00,,Overcast,60,2012-10-06 07:53:00
3:53 AM,53.1,50.0,89,30.11,10.0,NE,10.4,-,N/A,,Overcast,50,2012-10-06 08:53:00
4:53 AM,53.1,48.0,83,30.12,10.0,NE,10.4,19.6,N/A,,Overcast,50,2012-10-06 09:53:00
5:53 AM,52.0,48.9,89,30.14,10.0,NE,10.4,-,0.00,Rain,Light Rain,50,2012-10-06 10:53:00
6:40 AM,50.0,42.8,76,30.16,10.0,NE,15.0,24.2,0.00,,Overcast,40,2012-10-06 11:40:00
6:53 AM,50.0,43.0,77,30.16,10.0,NE,13.8,24.2,0.00,,Overcast,50,2012-10-06 11:53:00
7:14 AM,50.0,42.8,76,30.17,10.0,NE,10.4,18.4,0.00,,Overcast,50,2012-10-06 12:14:00
7:53 AM,48.9,39.0,69,30.17,10.0,ENE,15.0,20.7,0.00,Rain,Light Rain,60,2012-10-06 12:53:00
9:53 AM,50.0,39.9,68,30.19,10.0,NE,10.4,-,0.00,,Overcast,50,2012-10-06 14:53:00
10:53 AM,51.1,39.9,66,30.19,10.0,NE,10.4,-,N/A,,Overcast,50,2012-10-06 15:53:00
11:53 AM,51.1,39.9,66,30.19,10.0,NE,11.5,-,N/A,,Overcast,50,2012-10-06 16:53:00
12:53 PM,52.0,39.0,61,30.19,10.0,NE,9.2,18.4,N/A,,Overcast,50,2012-10-06 17:53:00
1:53 PM,52.0,39.0,61,30.16,10.0,NE,10.4,19.6,N/A,,Overcast,50,2012-10-06 18:53:00
2:53 PM,52.0,36.0,54,30.16,10.0,ENE,11.5,21.9,N/A,,Overcast,60,2012-10-06 19:53:00
3:53 PM,52.0,36.0,54,30.15,10.0,ENE,11.5,20.7,N/A,,Overcast,60,2012-10-06 20:53:00
4:53 PM,51.1,37.9,61,30.15,10.0,NE,12.7,16.1,N/A,,Overcast,40,2012-10-06 21:53:00
6:09 PM,48.2,41.0,76,30.17,10.0,NNE,10.4,-,N/A,,Overcast,30,2012-10-06 23:09:00
6:53 PM,48.0,37.0,66,30.19,10.0,NE,10.4,-,N/A,,Overcast,50,2012-10-06 23:53:00
7:53 PM,48.0,36.0,63,30.19,10.0,NE,6.9,-,N/A,,Overcast,50,2012-10-07 00:53:00
8:53 PM,48.0,37.9,68,30.24,10.0,North,9.2,-,N/A,,Overcast,10,2012-10-07 01:53:00
9:53 PM,46.9,42.1,83,30.23,10.0,NNE,8.1,-,N/A,,Overcast,30,2012-10-07 02:53:00
10:53 PM,46.9,41.0,80,30.25,10.0,NNE,9.2,19.6,N/A,,Overcast,20,2012-10-07 03:53:00
11:53 PM,46.9,39.9,77,30.25,10.0,NE,6.9,-,N/A,,Overcast,40,2012-10-07 04:53:00